Location: Newark
(51.2625°N, 13.3939°E)
Time: 09:51:06
(UTC+00:00)

Explorer 7 - Pass Details

Date: 15 November 2019
Orbit: 485 x 679 km, 50.3° (Epoch: 15 December)

Event Time Altitude Azimuth Distance (km) Brightness Sun altitude
Rises 02:06:13 0° 245° (WSW) 2,853 - -39.6°
Reaches altitude 10° 02:08:36 10° 242° (WSW) 1,917 - -39.2°
Maximum altitude 02:12:53 59° 163° (SSE) 657 - -38.6°
Drops below altitude 10° 02:16:55 10° 84° (E) 1,801 - -38.0°
Exits shadow 02:17:10 - 83° (E) 1,896 10.3 -38.0°
Sets 02:19:06 0° 81° (E) 2,663 11.2 -37.7°
